DateTime,F1_A11,F1_S11,BsB_S11,BsG_S11,BsR_S11,BbsB_S11,BbsG_S11,BbsR_S11,BaB_A11,BaG_A11,BaR_A11,T_S11,U_S11,P_S11,T1_A11
2016-06-27T00:00:00Z,0000380,20000600,,,,,,,,,,26.5,03.5,0668.9,34.5
2016-06-27T00:01:00Z,0000380,20000600,,,,,,,,,,26.5,03.4,0668.9,34.5
2016-06-27T00:02:00Z,0000380,20000600,,,,,,,,,,26.5,03.4,0668.9,34.5
2016-06-27T00:03:00Z,0000380,60000600,,,,,,,,,,26.6,03.4,0668.9,34.5
2016-06-27T00:04:00Z,0000380,40000600,0000.58,0000.91,-000.20,-000.06,0000.09,-000.21,0000.05,-000.02,-000.36,26.7,03.4,0669.7,34.5
2016-06-27T00:05:00Z,0000380,00000600,0001.14,0001.01,-000.10,-000.82,0000.08,-000.06,-000.14,-000.18,0000.02,26.7,03.4,0669.8,34.5
2016-06-27T00:06:00Z,0000380,00000600,0000.53,0000.66,-000.45,-000.21,0000.36,0000.09,0000.11,0000.20,0000.30,26.7,03.4,0669.8,34.5
2016-06-27T00:07:00Z,0000380,00000600,0000.29,0000.89,-000.34,-000.13,-000.17,-000.13,0000.11,-000.08,-000.33,26.7,03.3,0669.8,34.5
2016-06-27T00:08:00Z,0000380,00000600,0000.67,0000.99,0000.20,-000.21,0000.19,0000.11,-000.09,-000.12,0000.20,26.7,03.4,0669.8,34.5
2016-06-27T00:09:00Z,0000380,00000600,0000.04,0000.69,-000.43,0000.62,0000.08,0000.27,-000.03,0000.05,0000.01,26.7,03.3,0669.7,34.5
2016-06-27T00:10:00Z,0000380,00000600,0001.21,0001.25,-000.08,-000.11,0000.36,-000.06,-000.12,0000.14,0000.01,26.7,03.3,0669.7,34.5
2016-06-27T00:11:00Z,0000380,00000600,0000.62,0000.90,-000.30,0000.35,0000.46,-000.14,0000.04,-000.31,0000.07,26.7,03.3,0669.7,34.5
2016-06-27T00:12:00Z,0000380,00000600,0000.38,0000.99,0000.16,-000.46,0000.14,0000.00,0000.27,0000.18,-000.14,26.7,03.3,0669.7,34.5
2016-06-27T00:13:00Z,0000380,00000600,-000.32,0000.52,-000.02,-000.43,-000.14,-000.28,-000.03,0000.25,-000.02,26.6,03.3,0669.7,34.5
2016-06-27T00:14:00Z,0000380,00000600,0000.14,0000.13,-000.34,0000.05,0000.27,-000.03,0000.12,0000.02,0000.34,26.6,03.3,0669.7,34.5
2016-06-27T00:15:00Z,0000380,00000600,0000.79,0000.12,0000.04,-000.14,-000.06,-000.02,-000.02,-000.04,0000.11,26.6,03.3,0669.7,34.5
2016-06-27T00:16:00Z,0000380,00000600,0001.32,0000.12,-000.53,-000.30,0000.08,0000.00,0000.06,-000.03,-000.41,26.6,03.4,0669.7,34.5
2016-06-27T00:17:00Z,0000380,00000600,-000.73,0000.80,0000.30,-000.57,0000.08,0000.46,-000.04,-000.01,0000.01,26.5,03.4,0669.7,34.5
2016-06-27T00:18:00Z,0000380,00000600,0001.05,0000.31,-000.11,0000.32,0000.52,-000.09,-000.22,-000.19,-000.26,26.5,03.3,0669.7,34.5
2016-06-27T00:19:00Z,0000380,00000600,-000.11,0001.53,-000.10,-000.11,0000.66,-000.06,0000.09,-000.14,-000.17,26.5,03.3,0669.7,34.5
2016-06-27T00:20:00Z,0000380,00000600,0000.63,0000.98,-000.34,0000.22,0000.08,0000.24,-000.17,0000.07,0000.36,26.5,03.2,0669.7,34.5
2016-06-27T00:21:00Z,0000380,00000600,0000.00,0000.33,-000.35,-000.52,0000.05,0000.22,0000.05,0000.03,-000.04,26.5,03.1,0669.7,34.5
2016-06-27T00:22:00Z,0000380,00000600,0000.71,0000.93,-000.48,0000.39,-000.06,0000.21,0000.04,-000.07,-000.16,26.5,03.1,0669.7,34.5
2016-06-27T00:23:00Z,0000380,00000600,0001.00,0000.63,-000.38,0000.05,-000.14,-000.28,-000.22,-000.19,0000.07,26.5,03.1,0669.7,34.5
2016-06-27T00:24:00Z,0000380,00000600,0001.76,0000.80,0000.39,0000.38,0000.06,0000.00,0000.17,-000.00,-000.26,26.5,03.0,0669.7,34.5
2016-06-27T00:25:00Z,0000380,00000600,0001.62,0001.00,-000.12,-000.25,0000.06,0000.28,-000.27,-000.03,0000.45,26.5,03.0,0669.7,34.5
2016-06-27T00:26:00Z,0000380,00000600,0000.13,0000.37,-000.02,-000.19,-000.20,-000.14,0000.17,-000.14,-000.25,26.5,03.0,0669.8,34.5
2016-06-27T00:27:00Z,0000380,00000600,0001.81,0000.78,-000.16,-000.08,0000.09,0000.30,-000.09,0000.36,-000.08,26.5,03.0,0669.8,34.5
2016-06-27T00:28:00Z,0000380,00000600,0000.37,0000.17,0000.23,0000.51,0000.39,-000.16,-000.09,-000.38,-000.04,26.5,03.0,0669.8,34.5
2016-06-27T00:29:00Z,0000380,00000600,-000.06,0000.70,-000.37,0000.17,0000.33,0000.00,0000.11,0000.31,0000.29,26.5,03.0,0669.8,34.5
2016-06-27T00:30:00Z,0000380,00000600,0001.13,0000.35,-000.17,0000.06,0000.17,-000.19,-000.31,-000.26,0000.04,26.5,02.9,0669.8,34.5
2016-06-27T00:31:00Z,0000380,00000600,-000.08,0000.45,-000.17,-000.16,0000.20,-000.02,0000.05,0000.13,-000.47,26.5,02.9,0669.8,34.5
2016-06-27T00:32:00Z,0000380,00000600,0000.91,0000.59,0000.02,0000.21,0000.50,0000.19,0000.13,-000.09,-000.05,26.5,02.7,0669.8,34.5
2016-06-27T00:33:00Z,0000380,00000600,0000.59,0000.62,0000.18,-000.05,-000.02,0000.00,-000.01,-000.02,0000.12,26.5,02.8,0669.9,34.5
2016-06-27T00:34:00Z,0000380,00000600,0000.85,0000.57,-000.36,0000.11,0000.22,-000.13,-000.17,-000.11,-000.04,26.5,02.7,0669.9,34.5
2016-06-27T00:35:00Z,0000380,00000600,0000.71,0000.19,-000.66,0000.32,0000.17,-000.38,-000.01,-000.06,-000.38,26.5,02.8,0669.9,34.5
2016-06-27T00:36:00Z,0000380,00000600,0001.32,0000.26,0000.05,-000.09,0000.35,0000.13,0000.27,0000.11,0000.19,26.5,02.7,0669.9,34.5
2016-06-27T00:37:00Z,0000380,00000600,0001.00,0001.17,-000.33,-000.13,0000.11,0000.08,-000.23,-000.07,-000.00,26.5,02.6,0669.9,34.5
2016-06-27T00:38:00Z,0000380,00000600,0000.20,0000.38,0000.05,-000.25,0000.44,-000.02,-000.00,-000.20,0000.01,26.5,02.6,0669.9,34.5
2016-06-27T00:39:00Z,0000380,00000600,0001.65,0000.62,-000.25,0000.25,0000.14,0000.00,0000.12,0000.33,0000.22,26.5,02.6,0669.9,34.5
2016-06-27T00:40:00Z,0000380,00000600,0000.32,0000.02,0000.25,-000.30,-000.03,0000.02,-000.03,-000.18,0000.16,26.5,02.6,0669.9,34.5
2016-06-27T00:41:00Z,0000380,00000600,0001.69,0000.92,-000.18,-000.24,-000.06,0000.06,0000.13,0000.01,0000.00,26.5,02.6,0669.9,34.5
2016-06-27T00:42:00Z,0000380,00000600,-000.26,0000.57,-000.09,0000.21,0000.20,0000.05,-000.18,0000.06,-000.34,26.6,02.6,0669.9,34.5
2016-06-27T00:43:00Z,0000380,00000600,0000.04,0000.24,-000.64,0000.13,-000.24,0000.00,0000.12,0000.08,0000.25,26.6,02.6,0669.8,34.5
2016-06-27T00:44:00Z,0000380,00000600,0000.75,0000.58,-000.15,0000.52,0000.44,-000.09,0000.13,-000.09,0000.17,26.6,02.7,0669.8,34.5
2016-06-27T00:45:00Z,0000380,00000600,0000.85,0000.21,-000.47,-000.36,0000.20,0000.06,-000.05,0000.21,-000.44,26.6,02.6,0669.8,34.6
2016-06-27T00:46:00Z,0000380,00000600,0000.59,0000.50,-000.11,0000.39,-000.22,0000.08,-000.02,-000.13,0000.05,26.6,02.7,0669.8,34.6
2016-06-27T00:47:00Z,0000380,00000600,0000.79,0001.01,0000.04,0000.14,0000.17,-000.02,-000.09,0000.11,0000.33,26.6,02.7,0669.8,34.6
2016-06-27T00:48:00Z,0000380,00000600,0001.15,0000.45,0000.29,0000.36,0000.00,0000.27,0000.28,0000.08,0000.07,26.6,02.7,0669.8,34.6
2016-06-27T00:49:00Z,0000380,00000600,0000.77,0001.15,-000.37,0000.76,0000.75,0000.13,-000.02,0000.12,0000.15,26.6,02.8,0669.8,34.6
2016-06-27T00:50:00Z,0000380,00000600,0001.26,0000.75,0000.00,-000.06,0000.17,0000.27,-000.06,-000.25,-000.29,26.6,02.8,0669.8,34.6
2016-06-27T00:51:00Z,0000380,00000600,0000.73,0000.75,0000.15,0000.08,0000.03,0000.11,0000.06,0000.12,0000.25,26.6,02.8,0669.8,34.6
2016-06-27T00:52:00Z,0000380,00000600,0000.48,0000.31,0000.05,-000.06,0000.13,0000.08,0000.19,0000.09,0000.23,26.6,02.8,0669.8,34.6
2016-06-27T00:53:00Z,0000380,00000600,0001.19,0000.40,-000.01,0000.98,0000.44,-000.11,-000.14,-000.17,-000.00,26.6,02.9,0669.8,34.6
2016-06-27T00:54:00Z,0000380,00000600,0000.40,0000.61,0000.06,-000.69,0000.50,0000.33,0000.01,0000.14,-000.39,26.6,02.8,0669.8,34.6
2016-06-27T00:55:00Z,0000380,00000600,0000.49,-000.02,-000.50,-000.05,0000.13,0000.08,-000.04,0000.14,0000.17,26.6,02.7,0669.8,34.6
2016-06-27T00:56:00Z,0000380,00000600,0000.24,0000.96,-000.08,-000.38,0000.14,-000.03,0000.18,-000.10,-000.01,26.7,02.8,0669.8,34.6
2016-06-27T00:57:00Z,0000380,40000600,,,,,,,,,,,,0669.8,34.6
2016-06-27T00:58:00Z,0000380,60000600,,,,,,,,,,26.5,02.9,0669.0,34.6
2016-06-27T00:59:00Z,0000380,20000600,,,,,,,,,,26.5,02.9,0669.0,34.6
2016-06-27T01:00:00Z,0000380,20000600,,,,,,,,,,26.5,02.9,0669.0,34.6
2016-06-27T01:01:00Z,0000380,20000600,,,,,,,,,,26.5,02.9,0669.0,34.6
2016-06-27T01:02:00Z,0000380,20000600,,,,,,,,,,26.5,02.9,0669.0,34.6
2016-06-27T01:03:00Z,0000380,60000600,,,,,,,,,,26.5,02.9,0669.0,34.6
2016-06-27T01:04:00Z,0000380,40000600,-000.13,0000.41,-000.19,0000.47,-000.06,0000.22,-000.03,0000.24,0000.23,26.7,02.9,0669.8,34.6
2016-06-27T01:05:00Z,0000380,00000600,0000.09,0000.36,0000.19,0000.65,-000.02,0000.06,0000.10,-000.18,-000.13,26.7,02.7,0669.9,34.6
2016-06-27T01:06:00Z,0000380,00000600,0000.21,0001.20,-000.09,0000.09,0000.19,-000.40,-000.07,0000.16,0000.28,26.7,02.8,0669.9,34.6
2016-06-27T01:07:00Z,0000380,00000600,0000.70,0000.46,-000.41,0000.24,0000.20,-000.25,0000.12,-000.18,-000.16,26.7,02.8,0669.9,34.6
2016-06-27T01:08:00Z,0000380,00000600,0001.02,0000.66,-000.25,0000.43,-000.06,-000.21,-000.01,-000.09,-000.07,26.7,02.8,0669.9,34.6
2016-06-27T01:09:00Z,0000380,00000600,-000.02,0000.12,0000.33,0000.24,-000.02,-000.08,-000.33,-000.19,-000.49,26.7,02.8,0669.9,34.6
2016-06-27T01:10:00Z,0000380,00000600,0000.77,0000.22,-000.24,0000.11,0000.08,0000.16,-000.05,0000.08,0000.22,26.7,02.6,0669.9,34.6
2016-06-27T01:11:00Z,0000380,00000600,0000.32,0000.67,0000.08,0000.77,0000.06,-000.22,-000.19,-000.13,-000.44,26.7,02.6,0669.9,34.6
2016-06-27T01:12:00Z,0000380,00000600,0000.60,0000.79,-000.06,0001.04,0000.08,-000.05,0000.21,-000.02,0000.49,26.7,02.5,0669.9,34.6
2016-06-27T01:13:00Z,0000380,00000600,0001.44,0000.46,-000.12,0000.60,0000.36,-000.27,-000.14,0000.01,-000.29,26.7,02.5,0669.8,34.6
2016-06-27T01:14:00Z,0000380,00000600,0000.17,0000.77,0000.17,0000.73,0000.00,-000.05,0000.00,0000.10,0000.05,26.7,02.5,0669.9,34.6
2016-06-27T01:15:00Z,0000380,00000600,0000.76,-000.12,-000.17,0000.57,0000.35,-000.13,0000.12,0000.13,0000.14,26.7,02.5,0669.8,34.6
2016-06-27T01:16:00Z,0000380,00000600,0000.65,0000.35,0000.16,0000.62,-000.08,0000.00,0000.22,0000.21,0000.25,26.7,02.6,0669.8,34.6
2016-06-27T01:17:00Z,0000380,00000600,0000.17,0000.68,-000.17,0000.47,0000.02,0000.13,0000.03,-000.12,-000.06,26.6,02.6,0669.8,34.6
2016-06-27T01:18:00Z,0000380,00000600,-000.04,0000.12,-000.47,0000.79,0000.14,-000.16,0000.02,0000.03,0000.19,26.6,02.5,0669.8,34.6
2016-06-27T01:19:00Z,0000380,00000600,0001.33,0001.77,-000.11,0000.35,-000.13,-000.27,-000.19,-000.22,-000.44,26.6,02.5,0669.8,34.6
2016-06-27T01:20:00Z,0000380,00000600,0000.34,-000.13,0000.17,0000.54,0000.08,0000.11,-000.07,-000.16,0000.05,26.6,02.5,0669.8,34.6
2016-06-27T01:21:00Z,0000380,00000600,0000.30,0000.65,-000.09,0000.57,0000.53,-000.25,-000.20,-000.06,-000.49,26.6,02.4,0669.9,34.6
2016-06-27T01:22:00Z,0000380,00000600,0000.31,0000.05,0000.09,0000.74,0000.19,0000.21,0000.19,0000.08,0000.43,26.6,02.4,0669.9,34.6
2016-06-27T01:23:00Z,0000380,00000600,-000.12,0000.23,0000.32,0000.32,0000.31,0000.05,0000.01,-000.08,-000.17,26.6,02.4,0669.9,34.6
2016-06-27T01:24:00Z,0000380,00000600,0000.34,0000.50,-000.09,0000.27,0000.24,0000.03,-000.01,0000.07,0000.06,26.6,02.4,0669.9,34.6
2016-06-27T01:25:00Z,0000380,00000600,0000.30,0000.77,-000.22,0000.79,0000.02,-000.11,0000.08,0000.10,0000.33,26.6,02.4,0669.8,34.6
2016-06-27T01:26:00Z,0000380,00000600,0001.40,0000.84,-000.11,0000.73,-000.09,-000.09,-000.19,-000.04,-000.24,26.7,02.5,0669.8,34.6
2016-06-27T01:27:00Z,0000380,00000600,0000.76,0000.77,-000.26,0000.27,0000.06,-000.35,0000.24,-000.03,0000.08,26.6,02.4,0669.8,34.6
2016-06-27T01:28:00Z,0000380,00000600,0000.54,0000.97,-000.52,0000.57,-000.35,-000.03,-000.15,0000.09,-000.23,26.6,02.4,0669.8,34.6
2016-06-27T01:29:00Z,0000380,00000600,0000.00,0000.24,-000.27,0000.21,0000.22,-000.35,-000.01,-000.27,0000.03,26.6,02.4,0669.8,34.6
2016-06-27T01:30:00Z,0000380,00000600,0001.34,-000.27,-000.40,0000.27,0000.41,0000.03,-000.17,-000.21,0000.00,26.6,02.4,0669.8,34.6
2016-06-27T01:31:00Z,0000380,00000600,0000.33,0000.89,-000.32,0000.60,0000.11,-000.33,0000.06,0000.14,-000.01,26.6,02.3,0669.8,34.6
2016-06-27T01:32:00Z,0000380,00000600,0001.10,0000.02,-000.21,0000.19,0000.36,-000.19,0000.10,0000.27,0000.36,26.6,02.4,0669.8,34.6
2016-06-27T01:33:00Z,0000380,00000600,0000.54,0000.40,-000.18,0000.71,-000.25,-000.19,0000.05,-000.01,-000.11,26.7,02.3,0669.8,34.6
2016-06-27T01:34:00Z,0000380,00000600,0000.63,0000.13,-000.31,0000.17,-000.09,-000.44,-000.17,-000.31,-000.49,26.6,02.2,0669.8,34.6
2016-06-27T01:35:00Z,0000380,00000600,0000.76,0000.43,-000.16,0000.99,0000.17,-000.25,-000.05,-000.10,-000.05,26.6,02.2,0669.8,34.6
2016-06-27T01:36:00Z,0000380,00000600,0000.71,0000.24,0000.11,0000.19,0000.20,-000.17,-000.24,-000.06,-000.11,26.7,02.1,0669.8,34.6
2016-06-27T01:37:00Z,0000380,00000600,0000.99,0000.74,-000.07,0000.32,0000.17,-000.30,0000.10,0000.13,0000.16,26.7,02.2,0669.8,34.6
2016-06-27T01:38:00Z,0000380,00000600,0001.28,0000.41,-000.07,0000.93,0000.14,0000.00,-000.19,-000.12,0000.02,26.7,02.1,0669.8,34.6
2016-06-27T01:39:00Z,0000380,00000600,0001.01,0001.01,-000.29,0000.47,0000.22,0000.06,0000.00,-000.19,-000.18,26.7,02.0,0669.8,34.6
2016-06-27T01:40:00Z,0000380,00000600,0000.34,0000.39,-000.07,0000.57,-000.08,-000.02,-000.00,-000.05,-000.34,26.6,01.9,0669.8,34.6
2016-06-27T01:41:00Z,0000380,00000600,0000.42,0000.55,0000.11,0000.68,0000.22,-000.55,-000.12,-000.02,0000.02,26.6,01.9,0669.8,34.6
2016-06-27T01:42:00Z,0000380,00000600,0000.40,0000.23,0000.14,0000.19,0000.09,0000.11,0000.12,0000.08,0000.31,26.7,01.9,0669.8,34.6
2016-06-27T01:43:00Z,0000380,00000600,0000.13,0000.36,0000.11,0000.24,0000.25,0000.05,0000.21,0000.25,0000.36,26.7,01.9,0669.8,34.6
2016-06-27T01:44:00Z,0000380,00000600,0000.11,-000.18,0000.17,-000.35,-000.33,0000.25,-000.01,-000.13,-000.29,26.7,02.0,0669.8,34.6
2016-06-27T01:45:00Z,0000380,00000600,-000.26,0000.81,0000.26,0000.06,0000.28,-000.13,0000.15,0000.01,0000.34,26.7,02.0,0669.8,34.6
2016-06-27T01:46:00Z,0000380,00000600,0000.55,0000.20,-000.18,0000.55,-000.52,-000.09,-000.08,0000.11,-000.14,26.7,02.0,0669.8,34.6
2016-06-27T01:47:00Z,0000380,00000600,0000.96,0000.21,0000.01,0000.27,0000.22,0000.19,-000.03,-000.03,0000.18,26.7,02.0,0669.8,34.6
2016-06-27T01:48:00Z,0000380,00000600,0000.54,0000.79,-000.07,0000.38,-000.27,-000.19,-000.03,0000.02,-000.19,26.7,02.0,0669.8,34.6
2016-06-27T01:49:00Z,0000380,00000600,-000.32,0000.37,-000.06,0000.08,-000.06,0000.16,0000.03,-000.15,-000.18,26.7,02.0,0669.8,34.6
2016-06-27T01:50:00Z,0000380,00000600,0000.61,0000.11,-000.22,0000.87,-000.19,-000.08,-000.11,0000.02,0000.03,26.7,01.9,0669.8,34.6
2016-06-27T01:51:00Z,0000380,00000600,0000.16,0000.21,0000.08,0000.13,-000.03,-000.21,0000.09,0000.03,-000.03,26.7,01.9,0669.8,34.6
2016-06-27T01:52:00Z,0000380,00000600,-000.39,-000.08,-000.30,0000.65,0000.35,-000.40,-000.12,0000.06,-000.04,26.7,01.8,0669.8,34.6
2016-06-27T01:53:00Z,0000380,00000600,0000.39,0000.39,0000.18,0000.35,0000.02,-000.38,0000.12,-000.13,-000.04,26.7,01.8,0669.9,34.6
2016-06-27T01:54:00Z,0000380,00000600,0000.76,0000.43,-000.13,0000.35,0000.03,-000.14,-000.11,-000.32,0000.05,26.7,01.9,0669.8,34.6
2016-06-27T01:55:00Z,0000380,00000600,-000.21,0000.16,0000.14,0000.57,0000.22,-000.44,-000.16,0000.14,0000.25,26.7,01.7,0669.8,34.6
2016-06-27T01:56:00Z,0000380,00000600,0000.87,0000.45,0000.20,0000.71,0000.50,-000.22,0000.08,-000.16,-000.47,26.7,01.8,0669.9,34.6
2016-06-27T01:57:00Z,0000380,40000600,,,,,,,,,,,,0669.7,34.6
2016-06-27T01:58:00Z,0000380,60000600,,,,,,,,,,26.5,02.2,0669.0,34.6
2016-06-27T01:59:00Z,0000380,20000600,,,,,,,,,,26.5,02.0,0669.0,34.6
2016-06-27T02:00:00Z,0000380,20000600,,,,,,,,,,26.5,02.0,0669.0,34.6
2016-06-27T02:01:00Z,0000380,20000600,,,,,,,,,,26.5,01.8,0669.0,34.6
2016-06-27T02:02:00Z,0000380,20000600,,,,,,,,,,26.5,01.8,0669.0,34.6
2016-06-27T02:03:00Z,0000380,60000600,,,,,,,,,,26.5,01.8,0669.0,34.6
2016-06-27T02:04:00Z,0000380,40000600,0000.67,0000.33,-000.07,-000.39,-000.08,-000.13,0000.11,0000.03,0000.10,26.6,01.7,0669.8,34.6
2016-06-27T02:05:00Z,0000380,00000600,0000.86,0000.08,-000.25,-000.24,-000.30,-000.17,-000.08,-000.02,-000.03,26.6,01.6,0669.8,34.6
2016-06-27T02:06:00Z,0000380,00000600,-000.22,-000.06,-000.03,-000.16,0000.22,-000.08,-000.01,-000.09,-000.03,26.7,01.6,0669.8,34.6
2016-06-27T02:07:00Z,0000380,00000600,0000.71,0000.30,0000.63,0000.28,0000.09,0000.43,0000.13,0000.01,0000.39,26.7,01.7,0669.8,34.6
2016-06-27T02:08:00Z,0000380,00000600,0000.14,0000.09,0000.27,-000.55,0000.03,0000.35,-000.07,-000.01,-000.29,26.7,01.7,0669.8,34.6
2016-06-27T02:09:00Z,0000380,00000600,0000.20,0000.02,-000.21,0000.32,0000.00,-000.21,0000.09,0000.15,-000.04,26.7,01.7,0669.8,34.6
2016-06-27T02:10:00Z,0000380,00000600,0000.85,0000.20,-000.06,0000.03,0000.24,-000.06,0000.10,-000.14,0000.36,26.7,01.7,0669.8,34.6
2016-06-27T02:11:00Z,0000380,00000600,0000.91,0000.72,-000.53,-000.08,0000.60,-000.35,0000.00,0000.10,-000.29,26.7,01.6,0669.8,34.6
2016-06-27T02:12:00Z,0000380,00000600,0000.16,0001.05,-000.02,-000.11,-000.24,-000.03,-000.15,0000.03,0000.31,26.7,01.7,0669.8,34.6
2016-06-27T02:13:00Z,0000380,00000600,0000.65,0000.04,0000.07,-000.21,0000.08,-000.11,-000.08,-000.24,-000.35,26.6,01.6,0669.8,34.6
2016-06-27T02:14:00Z,0000380,00000600,-001.19,0000.34,-000.41,0000.00,0000.06,0000.11,-000.15,0000.13,0000.05,26.6,01.6,0669.8,34.6
2016-06-27T02:15:00Z,0000380,00000600,-000.35,-000.03,-000.12,-000.73,-000.24,-000.02,0000.32,-000.01,-000.32,26.6,01.6,0669.8,34.6
2016-06-27T02:16:00Z,0000380,00000600,0000.82,0000.27,0000.08,0000.22,0000.02,-000.19,-000.20,0000.09,0000.22,26.7,01.7,0669.8,34.6
2016-06-27T02:17:00Z,0000380,00000600,-000.14,0000.64,0000.00,0000.30,0000.14,0000.03,0000.09,0000.05,0000.03,26.7,01.6,0669.8,34.6
2016-06-27T02:18:00Z,0000380,00000600,0000.99,0000.82,0000.06,-000.38,0000.08,0000.08,-000.09,-000.14,0000.12,26.6,01.7,0669.8,34.6
2016-06-27T02:19:00Z,0000380,00000600,0000.59,0000.44,0000.40,0000.00,0000.00,-000.05,-000.05,-000.15,-000.09,26.6,01.7,0669.8,34.6
2016-06-27T02:20:00Z,0000380,00000600,0000.08,0000.37,-000.14,-000.05,0000.28,0000.17,0000.20,-000.08,0000.24,26.6,01.8,0669.8,34.6
2016-06-27T02:21:00Z,0000380,00000600,0000.74,-000.37,0000.36,0000.35,-000.08,0000.19,-000.22,0000.03,-000.41,26.6,01.7,0669.8,34.6
2016-06-27T02:22:00Z,0000380,00000600,0000.34,0000.10,0000.09,-000.16,-000.17,0000.11,-000.01,0000.07,0000.11,26.7,01.7,0669.8,34.6
2016-06-27T02:23:00Z,0000380,00000600,0000.25,-000.34,0000.15,-000.02,0000.00,-000.08,0000.01,-000.07,-000.28,26.7,01.7,0669.8,34.6
2016-06-27T02:24:00Z,0000380,00000600,0000.60,0000.25,-000.16,0000.19,-000.13,-000.09,0000.01,0000.15,0000.56,26.6,01.8,0669.8,34.6
2016-06-27T02:25:00Z,0000380,00000600,0000.15,-000.30,-000.10,0000.60,-000.16,0000.27,0000.22,0000.18,0000.10,26.6,01.7,0669.8,34.6
2016-06-27T02:26:00Z,0000380,00000600,0000.02,0000.04,-000.12,0000.00,-000.27,0000.33,-000.23,-000.14,-000.16,26.7,01.7,0669.8,34.6
2016-06-27T02:27:00Z,0000380,00000600,-001.02,0000.02,0000.35,0000.73,0000.41,-000.21,0000.23,0000.19,0000.33,26.6,01.8,0669.8,34.6
2016-06-27T02:28:00Z,0000380,00000600,0000.39,0000.93,-000.34,0000.11,-000.03,-000.46,-000.16,-000.29,-000.43,26.6,01.8,0669.8,34.6
2016-06-27T02:29:00Z,0000380,00000600,0000.68,-000.02,0000.54,0000.06,-000.08,0000.19,0000.00,-000.02,-000.14,26.6,01.8,0669.8,34.6
2016-06-27T02:30:00Z,0000380,00000600,0000.08,0000.68,0000.15,-000.06,-000.16,-000.22,0000.06,0000.14,0000.06,26.6,01.8,0669.8,34.6
2016-06-27T02:31:00Z,0000380,00000600,-000.86,0000.19,0000.08,-000.16,0000.00,0000.00,0000.08,-000.05,0000.12,26.7,01.8,0669.8,34.6
2016-06-27T02:32:00Z,0000380,00000600,0000.50,0000.64,0000.31,-000.17,0000.17,0000.16,0000.02,0000.00,-000.33,26.6,01.8,0669.8,34.6
2016-06-27T02:33:00Z,0000380,00000600,-000.07,-000.22,-000.23,-000.30,-000.17,-000.17,-000.01,0000.06,0000.29,26.6,01.8,0669.8,34.6
2016-06-27T02:34:00Z,0000380,00000600,-000.41,-000.11,0000.11,-000.09,0000.31,-000.03,-000.20,0000.00,0000.13,26.6,01.7,0669.8,34.6
2016-06-27T02:35:00Z,0000380,00000600,0000.33,0000.14,-000.09,-000.28,-000.38,-000.17,0000.12,-000.10,-000.37,26.6,01.7,0669.8,34.6
2016-06-27T02:36:00Z,0000380,01000600,-000.78,0000.07,0000.05,0000.36,-000.09,-000.09,0000.04,0000.06,0000.23,26.6,01.6,0669.8,34.6
2016-06-27T02:37:00Z,0000380,00000600,0000.32,0000.26,0000.42,0000.16,-000.24,-000.08,-000.02,0000.13,-000.07,26.6,01.6,0669.8,34.6
2016-06-27T02:38:00Z,0000380,00000600,0000.80,0000.40,0000.00,0000.49,-000.02,-000.03,0000.20,-000.07,-000.06,26.6,01.7,0669.8,34.6
2016-06-27T02:39:00Z,0000380,00000600,0000.06,0000.08,0000.10,0000.08,0000.28,-000.35,-000.28,-000.14,-000.31,26.6,01.7,0669.8,34.6
2016-06-27T02:40:00Z,0000380,00000600,-000.81,0000.35,-000.08,0000.25,-000.09,0000.22,0000.10,-000.08,0000.42,26.6,01.7,0669.8,34.6
2016-06-27T02:41:00Z,0000380,00000600,0000.13,0000.29,-000.04,0000.19,0000.19,-000.09,-000.13,-000.02,-000.55,26.6,01.7,0669.8,34.6
2016-06-27T02:42:00Z,0000380,00000600,0000.63,-000.21,0000.21,0000.06,0000.27,0000.24,0000.04,0000.08,0000.51,26.6,01.6,0669.8,34.6
2016-06-27T02:43:00Z,0000380,00000600,0000.30,-000.27,0000.13,0000.17,0000.00,-000.16,-000.13,-000.06,-000.30,26.6,01.5,0669.8,34.6
2016-06-27T02:44:00Z,0000380,00000600,0001.02,0000.66,0000.28,0000.13,0000.05,0000.30,0000.02,-000.04,0000.52,26.6,01.6,0669.8,34.6
2016-06-27T02:45:00Z,0000380,00000600,-000.13,0000.78,0000.30,-000.41,0000.25,0000.00,0000.11,-000.06,-000.45,26.5,01.5,0669.8,34.6
2016-06-27T02:46:00Z,0000380,00000600,0001.04,0000.42,-000.22,0000.13,0000.22,0000.05,0000.08,0000.10,0000.04,26.6,01.6,0669.8,34.6
2016-06-27T02:47:00Z,0000380,00000600,0000.46,0000.15,-000.01,0000.24,-000.05,0000.02,-000.15,-000.17,0000.01,26.6,01.5,0669.8,34.6
2016-06-27T02:48:00Z,0000380,00000600,0000.37,0000.10,0000.24,-000.32,-000.08,0000.00,-000.14,0000.04,-000.04,26.6,01.5,0669.8,34.6
2016-06-27T02:49:00Z,0000380,00000600,0001.07,0000.56,0000.34,0000.57,0000.00,0000.30,0000.06,0000.05,0000.04,26.6,01.5,0669.7,34.6
2016-06-27T02:50:00Z,0000380,00000600,0000.53,-000.02,-000.14,-000.02,0000.16,-000.02,-000.05,0000.13,0000.15,26.5,01.5,0669.7,34.6
2016-06-27T02:51:00Z,0000380,00000600,-000.07,0000.27,0000.15,-000.30,0000.14,0000.17,0000.05,-000.25,-000.34,26.5,01.6,0669.7,34.6
2016-06-27T02:52:00Z,0000380,00000600,-000.27,0000.59,0000.23,-000.41,0000.33,0000.08,0000.20,0000.31,0000.29,26.5,01.6,0669.8,34.6
2016-06-27T02:53:00Z,0000380,00000600,0000.56,0000.18,0000.10,0000.36,0000.14,-000.02,-000.04,-000.12,0000.07,26.5,01.6,0669.8,34.6
2016-06-27T02:54:00Z,0000380,00000600,-000.63,0000.50,0000.03,0000.06,-000.08,0000.28,0000.02,0000.08,-000.04,26.5,01.7,0669.8,34.6
2016-06-27T02:55:00Z,0000380,00000600,-000.35,0000.18,-000.13,-000.13,-000.02,0000.32,-000.06,-000.04,0000.02,26.6,01.6,0669.8,34.6
2016-06-27T02:56:00Z,0000380,00000600,0000.59,0000.26,-000.24,-000.03,0000.14,0000.06,-000.05,-000.16,-000.26,26.6,01.5,0669.8,34.6
2016-06-27T02:57:00Z,0000380,40000600,,,,,,,,,,,,0669.7,34.6
2016-06-27T02:58:00Z,0000380,60000600,,,,,,,,,,26.5,01.7,0668.9,34.6
2016-06-27T02:59:00Z,0000380,20000600,,,,,,,,,,26.5,01.7,0668.9,34.6
2016-06-27T03:00:00Z,0000380,20000600,,,,,,,,,,26.5,01.7,0668.9,34.6
2016-06-27T03:01:00Z,0000380,20000600,,,,,,,,,,26.5,01.7,0668.9,34.6
2016-06-27T03:02:00Z,0000380,20000600,,,,,,,,,,26.5,01.7,0668.9,34.6
2016-06-27T03:03:00Z,0000380,60000600,,,,,,,,,,26.5,01.7,0668.9,34.6
2016-06-27T03:04:00Z,0000380,40000600,0000.51,-000.21,0000.00,-000.19,0000.00,-000.19,0000.16,0000.12,0000.16,26.6,01.8,0669.7,34.6
2016-06-27T03:05:00Z,0000380,00000600,0000.24,0000.09,-000.38,-000.30,0000.11,-000.46,-000.16,-000.04,-000.27,26.6,01.8,0669.8,34.6
2016-06-27T03:06:00Z,0000380,00000600,0000.74,-000.37,-000.35,-000.02,-000.46,-000.21,-000.04,-000.02,0000.00,26.6,01.8,0669.8,34.6
2016-06-27T03:07:00Z,0000380,00000600,-000.07,0000.07,-000.37,-000.03,0000.02,-000.30,0000.09,0000.07,0000.31,26.6,01.8,0669.8,34.6
2016-06-27T03:08:00Z,0000380,00000600,-000.42,-000.36,0000.19,0000.19,0000.06,0000.00,-000.03,0000.16,-000.24,26.6,01.9,0669.8,34.6
2016-06-27T03:09:00Z,0000380,00000600,0000.89,-000.53,-000.40,0000.41,-000.39,-000.08,0000.21,-000.24,0000.07,26.6,01.8,0669.8,34.6
2016-06-27T03:10:00Z,0000380,00000600,-000.13,-000.27,0000.07,-000.22,-000.33,0000.02,-000.27,-000.01,-000.01,26.6,01.8,0669.8,34.6
2016-06-27T03:11:00Z,0000380,00000600,-000.16,-000.11,-000.21,0000.33,0000.25,0000.06,-000.02,-000.04,0000.13,26.6,01.8,0669.8,34.6
2016-06-27T03:12:00Z,0000380,00000600,0000.11,-000.20,-000.45,0000.08,0000.09,-000.46,-000.24,0000.03,-000.13,26.6,01.8,0669.8,34.6